User: anonymous   Login
Location: Unspecified
(0.0000°N, 0.0000°E)
Time: 08:42:53
(UTC+00:00)
Language:

S-56A Canister/Altair - Orbit

View from above orbital plane
View from above orbital plane
View from above satellite
View from above satellite

Ground track
Ground track

The orbit data is extracted from the following two-line orbital elements,

1    82U 61004B   17017.77096810 +.00000035 +00000-0 +60998-4 0  9999
2    82 038.8545 133.6802 1167749 187.9141 170.1526 12.25806639654801
Epoch (UTC): 17 January 2017 18:30:11
Eccentricity: 0.1167749
inclination: 38.8545°
perigee height: 639 km
apogee height: 2495 km
right ascension of ascending node: 133.6802°
argument of perigee: 187.9141°
revolutions per day: 12.25806639
mean anomaly at epoch: 170.1526°
orbit number at epoch: 65480

The dashed part of the orbit path shows where the satellite is in the earth's shadow,  

DLR